Time,TemperatureF,DewpointF,PressureIn,WindDirection,WindDirectionDegrees,WindSpeedMPH,WindSpeedGustMPH,Humidity,HourlyPrecipIn,Conditions,Clouds,dailyrainin,SoftwareType,DateUTC
2013-06-18 00:02:00,58.0,55.0,29.93,SSE,154,0.0,-999.0,91,-99.99,,,-99.99,,2013-06-18 07:02:00,
2013-06-18 00:12:00,58.0,55.0,29.94,SSE,154,0.0,-999.0,91,-99.99,,,-99.99,,2013-06-18 07:12:00,
2013-06-18 00:22:00,57.0,54.0,29.94,SSE,154,0.0,-999.0,91,-99.99,,,-99.99,,2013-06-18 07:22:00,
2013-06-18 00:43:00,57.0,54.0,29.94,SSE,153,0.0,-999.0,91,-99.99,,,-99.99,,2013-06-18 07:43:00,
2013-06-18 00:52:00,57.0,54.0,29.94,SSE,153,0.0,-999.0,91,-99.99,,,-99.99,,2013-06-18 07:52:00,
2013-06-18 01:01:00,57.0,55.0,29.93,SSE,154,0.0,-999.0,92,-99.99,,,-99.99,,2013-06-18 08:01:00,
2013-06-18 01:11:00,57.0,54.0,29.93,SSE,153,0.0,-999.0,91,-99.99,,,-99.99,,2013-06-18 08:11:00,
2013-06-18 01:22:00,57.0,54.0,29.94,South,183,1.0,-999.0,91,-99.99,,,-99.99,,2013-06-18 08:22:00,
2013-06-18 01:32:00,57.0,54.0,29.94,South,183,1.0,-999.0,91,-99.99,,,-99.99,,2013-06-18 08:32:00,
2013-06-18 01:43:00,57.0,54.0,29.93,South,176,2.0,-999.0,91,-99.99,,,-99.99,,2013-06-18 08:43:00,
2013-06-18 01:52:00,57.0,54.0,29.93,South,176,2.0,-999.0,91,-99.99,,,-99.99,,2013-06-18 08:52:00,
2013-06-18 02:01:00,57.0,54.0,29.93,South,186,2.0,-999.0,91,-99.99,,,-99.99,,2013-06-18 09:01:00,
2013-06-18 02:11:00,57.0,54.0,29.93,South,190,0.0,-999.0,90,-99.99,,,-99.99,,2013-06-18 09:11:00,
2013-06-18 02:22:00,57.0,54.0,29.93,South,190,0.0,-999.0,90,-99.99,,,-99.99,,2013-06-18 09:22:00,
2013-06-18 02:34:00,57.0,54.0,29.93,South,190,0.0,-999.0,89,-99.99,,,-99.99,,2013-06-18 09:34:00,
2013-06-18 02:42:00,57.0,54.0,29.93,South,190,0.0,-999.0,90,-99.99,,,-99.99,,2013-06-18 09:42:00,
2013-06-18 02:53:00,57.0,54.0,29.93,South,190,0.0,-999.0,90,-99.99,,,-99.99,,2013-06-18 09:53:00,
2013-06-18 03:01:00,57.0,54.0,29.93,South,190,0.0,-999.0,90,-99.99,,,-99.99,,2013-06-18 10:01:00,
2013-06-18 03:11:00,57.0,54.0,29.92,South,190,1.0,-999.0,90,-99.99,,,-99.99,,2013-06-18 10:11:00,
2013-06-18 03:22:00,56.0,53.0,29.93,South,190,0.0,-999.0,89,-99.99,,,-99.99,,2013-06-18 10:22:00,
2013-06-18 03:33:00,56.0,53.0,29.93,South,190,0.0,-999.0,89,-99.99,,,-99.99,,2013-06-18 10:33:00,
2013-06-18 03:43:00,56.0,53.0,29.93,South,190,0.0,-999.0,89,-99.99,,,-99.99,,2013-06-18 10:43:00,
2013-06-18 03:53:00,56.0,53.0,29.93,South,190,0.0,-999.0,89,-99.99,,,-99.99,,2013-06-18 10:53:00,
2013-06-18 04:02:00,56.0,53.0,29.92,South,190,0.0,-999.0,89,-99.99,,,-99.99,,2013-06-18 11:02:00,
2013-06-18 04:11:00,55.0,52.0,29.93,South,190,0.0,-999.0,90,-99.99,,,-99.99,,2013-06-18 11:11:00,
2013-06-18 04:22:00,55.0,52.0,29.93,South,187,0.0,-999.0,91,-99.99,,,-99.99,,2013-06-18 11:22:00,
2013-06-18 04:32:00,55.0,52.0,29.93,South,187,0.0,-999.0,91,-99.99,,,-99.99,,2013-06-18 11:32:00,
2013-06-18 04:42:00,55.0,52.0,29.93,South,187,0.0,-999.0,91,-99.99,,,-99.99,,2013-06-18 11:42:00,
2013-06-18 04:52:00,55.0,52.0,29.93,South,187,0.0,-999.0,91,-99.99,,,-99.99,,2013-06-18 11:52:00,
2013-06-18 05:01:00,55.0,52.0,29.93,South,187,1.0,-999.0,91,-99.99,,,-99.99,,2013-06-18 12:01:00,
2013-06-18 05:11:00,55.0,52.0,29.93,South,188,0.0,-999.0,91,-99.99,,,-99.99,,2013-06-18 12:11:00,
2013-06-18 05:22:00,55.0,52.0,29.93,South,188,0.0,-999.0,91,-99.99,,,-99.99,,2013-06-18 12:22:00,
2013-06-18 05:32:00,55.0,52.0,29.93,South,188,0.0,-999.0,91,-99.99,,,-99.99,,2013-06-18 12:32:00,
2013-06-18 05:42:00,55.0,52.0,29.93,South,188,0.0,-999.0,91,-99.99,,,-99.99,,2013-06-18 12:42:00,
2013-06-18 05:52:00,55.0,52.0,29.93,South,188,0.0,-999.0,91,-99.99,,,-99.99,,2013-06-18 12:52:00,
2013-06-18 06:01:00,55.0,53.0,29.93,South,188,0.0,-999.0,92,-99.99,,,-99.99,,2013-06-18 13:01:00,
2013-06-18 06:11:00,55.0,53.0,29.93,South,188,0.0,-999.0,92,-99.99,,,-99.99,,2013-06-18 13:11:00,
2013-06-18 06:22:00,55.0,53.0,29.93,South,178,1.0,-999.0,93,-99.99,,,-99.99,,2013-06-18 13:22:00,
2013-06-18 06:33:00,55.0,53.0,29.93,South,178,1.0,-999.0,93,-99.99,,,-99.99,,2013-06-18 13:33:00,
2013-06-18 06:43:00,56.0,54.0,29.93,South,178,0.0,-999.0,93,-99.99,,,-99.99,,2013-06-18 13:43:00,
2013-06-18 06:52:00,56.0,54.0,29.93,South,178,0.0,-999.0,93,-99.99,,,-99.99,,2013-06-18 13:52:00,
2013-06-18 07:02:00,56.0,54.0,29.93,South,178,0.0,-999.0,93,-99.99,,,-99.99,,2013-06-18 14:02:00,
2013-06-18 07:11:00,55.0,53.0,29.93,South,178,0.0,-999.0,92,-99.99,,,-99.99,,2013-06-18 14:11:00,
2013-06-18 07:22:00,55.0,53.0,29.93,South,178,0.0,-999.0,92,-99.99,,,-99.99,,2013-06-18 14:22:00,
2013-06-18 07:33:00,55.0,53.0,29.93,South,178,0.0,-999.0,92,-99.99,,,-99.99,,2013-06-18 14:33:00,
2013-06-18 07:43:00,55.0,53.0,29.93,South,178,0.0,-999.0,92,-99.99,,,-99.99,,2013-06-18 14:43:00,
2013-06-18 07:52:00,55.0,53.0,29.93,South,178,0.0,-999.0,92,-99.99,,,-99.99,,2013-06-18 14:52:00,
2013-06-18 08:01:00,55.0,53.0,29.93,South,172,2.0,-999.0,92,-99.99,,,-99.99,,2013-06-18 15:01:00,
2013-06-18 08:11:00,56.0,54.0,29.93,South,184,1.0,-999.0,92,-99.99,,,-99.99,,2013-06-18 15:11:00,
2013-06-18 08:22:00,56.0,53.0,29.93,South,171,2.0,-999.0,91,-99.99,,,-99.99,,2013-06-18 15:22:00,
2013-06-18 08:33:00,56.0,53.0,29.93,South,171,2.0,-999.0,91,-99.99,,,-99.99,,2013-06-18 15:33:00,
2013-06-18 08:42:00,56.0,53.0,29.93,South,191,2.0,-999.0,89,-99.99,,,-99.99,,2013-06-18 15:42:00,
2013-06-18 08:52:00,56.0,53.0,29.93,South,191,2.0,-999.0,89,-99.99,,,-99.99,,2013-06-18 15:52:00,
2013-06-18 09:01:00,57.0,53.0,29.93,South,187,1.0,-999.0,87,-99.99,,,-99.99,,2013-06-18 16:01:00,
2013-06-18 09:11:00,58.0,54.0,29.93,SSE,158,2.0,-999.0,85,-99.99,,,-99.99,,2013-06-18 16:11:00,
2013-06-18 09:22:00,58.0,53.0,29.92,South,179,1.0,-999.0,83,-99.99,,,-99.99,,2013-06-18 16:22:00,
2013-06-18 09:33:00,58.0,53.0,29.92,South,179,1.0,-999.0,83,-99.99,,,-99.99,,2013-06-18 16:33:00,
2013-06-18 09:43:00,59.0,52.0,29.92,South,175,2.0,-999.0,79,-99.99,,,-99.99,,2013-06-18 16:43:00,
2013-06-18 09:52:00,59.0,52.0,29.92,South,175,2.0,-999.0,79,-99.99,,,-99.99,,2013-06-18 16:52:00,
2013-06-18 10:01:00,59.0,51.0,29.92,SSE,154,2.0,-999.0,76,-99.99,,,-99.99,,2013-06-18 17:01:00,
2013-06-18 10:11:00,60.0,52.0,29.92,South,171,3.0,-999.0,74,-99.99,,,-99.99,,2013-06-18 17:11:00,
2013-06-18 10:22:00,62.0,52.0,29.92,South,180,3.0,-999.0,69,-99.99,,,-99.99,,2013-06-18 17:22:00,
2013-06-18 10:33:00,62.0,52.0,29.92,South,180,3.0,-999.0,69,-99.99,,,-99.99,,2013-06-18 17:33:00,
2013-06-18 10:43:00,62.0,51.0,29.92,South,179,3.0,-999.0,68,-99.99,,,-99.99,,2013-06-18 17:43:00,
2013-06-18 10:53:00,62.0,51.0,29.91,SSE,163,2.0,-999.0,68,-99.99,,,-99.99,,2013-06-18 17:53:00,
2013-06-18 11:01:00,62.0,51.0,29.91,SSE,163,2.0,-999.0,68,-99.99,,,-99.99,,2013-06-18 18:01:00,
2013-06-18 11:11:00,62.0,51.0,29.91,ESE,115,2.0,-999.0,68,-99.99,,,-99.99,,2013-06-18 18:11:00,
2013-06-18 11:22:00,63.0,51.0,29.91,WSW,253,2.0,-999.0,65,-99.99,,,-99.99,,2013-06-18 18:22:00,
2013-06-18 11:33:00,63.0,51.0,29.91,WSW,253,2.0,-999.0,65,-99.99,,,-99.99,,2013-06-18 18:33:00,
2013-06-18 11:53:00,66.0,52.0,29.91,SW,218,2.0,-999.0,60,-99.99,,,-99.99,,2013-06-18 18:53:00,
2013-06-18 12:01:00,66.0,52.0,29.91,SW,218,2.0,-999.0,60,-99.99,,,-99.99,,2013-06-18 19:01:00,
2013-06-18 12:11:00,66.0,52.0,29.91,SSW,198,2.0,-999.0,60,-99.99,,,-99.99,,2013-06-18 19:11:00,
2013-06-18 12:22:00,67.0,52.0,29.91,SSW,193,2.0,-999.0,58,-99.99,,,-99.99,,2013-06-18 19:22:00,
2013-06-18 12:33:00,67.0,52.0,29.91,SSW,193,2.0,-999.0,58,-99.99,,,-99.99,,2013-06-18 19:33:00,
2013-06-18 12:42:00,66.0,52.0,29.90,SW,222,1.0,-999.0,60,-99.99,,,-99.99,,2013-06-18 19:42:00,
2013-06-18 12:52:00,66.0,52.0,29.90,SW,222,1.0,-999.0,60,-99.99,,,-99.99,,2013-06-18 19:52:00,
2013-06-18 13:22:00,69.0,52.0,29.89,SSE,168,3.0,-999.0,54,-99.99,,,-99.99,,2013-06-18 20:22:00,
2013-06-18 13:33:00,69.0,52.0,29.89,SSE,168,3.0,-999.0,54,-99.99,,,-99.99,,2013-06-18 20:33:00,
2013-06-18 13:43:00,69.0,51.0,29.89,SSE,155,3.0,-999.0,52,-99.99,,,-99.99,,2013-06-18 20:43:00,
2013-06-18 13:52:00,69.0,51.0,29.89,SSE,155,3.0,-999.0,52,-99.99,,,-99.99,,2013-06-18 20:52:00,
2013-06-18 14:01:00,69.0,52.0,29.89,South,174,3.0,-999.0,54,-99.99,,,-99.99,,2013-06-18 21:01:00,
2013-06-18 14:11:00,69.0,52.0,29.88,South,175,3.0,-999.0,54,-99.99,,,-99.99,,2013-06-18 21:11:00,
2013-06-18 14:22:00,70.0,51.0,29.88,NNE,28,2.0,-999.0,51,-99.99,,,-99.99,,2013-06-18 21:22:00,
2013-06-18 14:33:00,70.0,51.0,29.88,NNE,28,2.0,-999.0,51,-99.99,,,-99.99,,2013-06-18 21:33:00,
2013-06-18 14:43:00,70.0,50.0,29.88,SW,236,2.0,-999.0,49,-99.99,,,-99.99,,2013-06-18 21:43:00,
2013-06-18 15:22:00,72.0,50.0,29.87,WNW,288,2.0,-999.0,46,-99.99,,,-99.99,,2013-06-18 22:22:00,
2013-06-18 16:11:00,70.0,47.0,29.86,SSE,153,2.0,-999.0,44,-99.99,,,-99.99,,2013-06-18 23:11:00,
2013-06-18 16:23:00,70.0,48.0,29.86,SSW,198,1.0,-999.0,46,-99.99,,,-99.99,,2013-06-18 23:23:00,
2013-06-18 17:11:00,72.0,48.0,29.85,South,180,2.0,-999.0,43,-99.99,,,-99.99,,2013-06-19 00:11:00,
2013-06-18 17:22:00,71.0,48.0,29.84,South,171,3.0,-999.0,44,-99.99,,,-99.99,,2013-06-19 00:22:00,
2013-06-18 18:01:00,71.0,47.0,29.83,West,263,2.0,-999.0,42,-99.99,,,-99.99,,2013-06-19 01:01:00,
2013-06-18 18:11:00,71.0,45.0,29.83,SE,144,2.0,-999.0,40,-99.99,,,-99.99,,2013-06-19 01:11:00,
2013-06-18 18:22:00,71.0,45.0,29.83,SE,144,2.0,-999.0,40,-99.99,,,-99.99,,2013-06-19 01:22:00,
2013-06-18 18:32:00,71.0,45.0,29.83,SE,144,2.0,-999.0,40,-99.99,,,-99.99,,2013-06-19 01:32:00,
2013-06-18 18:42:00,71.0,45.0,29.83,SE,144,2.0,-999.0,40,-99.99,,,-99.99,,2013-06-19 01:42:00,
2013-06-18 18:53:00,71.0,45.0,29.83,SE,144,2.0,-999.0,40,-99.99,,,-99.99,,2013-06-19 01:53:00,
2013-06-18 19:32:00,71.0,49.0,29.84,South,188,4.0,-999.0,45,-99.99,,,-99.99,,2013-06-19 02:32:00,
2013-06-18 19:42:00,69.0,48.0,29.85,SE,129,3.0,-999.0,48,-99.99,,,-99.99,,2013-06-19 02:42:00,
2013-06-18 19:51:00,69.0,48.0,29.85,SE,129,3.0,-999.0,48,-99.99,,,-99.99,,2013-06-19 02:51:00,
2013-06-18 20:01:00,68.0,49.0,29.85,SE,144,4.0,-999.0,51,-99.99,,,-99.99,,2013-06-19 03:01:00,
2013-06-18 20:11:00,68.0,49.0,29.85,SE,144,4.0,-999.0,51,-99.99,,,-99.99,,2013-06-19 03:11:00,
2013-06-18 20:21:00,67.0,49.0,29.86,East,96,4.0,-999.0,53,-99.99,,,-99.99,,2013-06-19 03:21:00,
2013-06-18 20:32:00,67.0,49.0,29.86,East,96,4.0,-999.0,53,-99.99,,,-99.99,,2013-06-19 03:32:00,
2013-06-18 20:42:00,66.0,48.0,29.87,East,101,3.0,-999.0,53,-99.99,,,-99.99,,2013-06-19 03:42:00,
2013-06-18 20:52:00,64.0,49.0,29.88,NE,51,2.0,-999.0,59,-99.99,,,-99.99,,2013-06-19 03:52:00,
2013-06-18 21:01:00,64.0,49.0,29.88,NE,51,2.0,-999.0,59,-99.99,,,-99.99,,2013-06-19 04:01:00,
2013-06-18 21:11:00,64.0,51.0,29.88,NW,314,1.0,-999.0,62,-99.99,,,-99.99,,2013-06-19 04:11:00,
2013-06-18 21:22:00,64.0,51.0,29.88,NW,314,1.0,-999.0,62,-99.99,,,-99.99,,2013-06-19 04:22:00,
2013-06-18 21:32:00,64.0,51.0,29.88,NW,314,1.0,-999.0,62,-99.99,,,-99.99,,2013-06-19 04:32:00,
2013-06-18 21:42:00,64.0,51.0,29.88,NW,314,1.0,-999.0,62,-99.99,,,-99.99,,2013-06-19 04:42:00,
2013-06-18 21:52:00,63.0,51.0,29.89,NNE,15,0.0,-999.0,66,-99.99,,,-99.99,,2013-06-19 04:52:00,
2013-06-18 22:01:00,63.0,51.0,29.89,NNE,15,0.0,-999.0,66,-99.99,,,-99.99,,2013-06-19 05:01:00,
2013-06-18 22:11:00,63.0,51.0,29.89,NNE,15,0.0,-999.0,66,-99.99,,,-99.99,,2013-06-19 05:11:00,
2013-06-18 22:22:00,61.0,51.0,29.89,NNE,15,0.0,-999.0,70,-99.99,,,-99.99,,2013-06-19 05:22:00,
2013-06-18 22:32:00,61.0,51.0,29.89,NNE,15,0.0,-999.0,70,-99.99,,,-99.99,,2013-06-19 05:32:00,
2013-06-18 22:43:00,61.0,52.0,29.89,South,171,1.0,-999.0,71,-99.99,,,-99.99,,2013-06-19 05:43:00,
2013-06-18 22:52:00,60.0,50.0,29.89,South,171,1.0,-999.0,70,-99.99,,,-99.99,,2013-06-19 05:52:00,
2013-06-18 23:01:00,60.0,50.0,29.89,South,171,1.0,-999.0,70,-99.99,,,-99.99,,2013-06-19 06:01:00,
2013-06-18 23:11:00,60.0,51.0,29.89,South,170,1.0,-999.0,72,-99.99,,,-99.99,,2013-06-19 06:11:00,
2013-06-18 23:21:00,60.0,51.0,29.89,South,170,1.0,-999.0,72,-99.99,,,-99.99,,2013-06-19 06:21:00,
2013-06-18 23:33:00,60.0,51.0,29.90,SSE,166,1.0,-999.0,73,-99.99,,,-99.99,,2013-06-19 06:33:00,
2013-06-18 23:42:00,59.0,51.0,29.90,SSE,167,0.0,-999.0,74,-99.99,,,-99.99,,2013-06-19 06:42:00,
2013-06-18 23:52:00,59.0,51.0,29.90,SSE,167,1.0,-999.0,75,-99.99,,,-99.99,,2013-06-19 06:52:00,